Time,TemperatureF,DewpointF,PressureIn,WindDirection,WindDirectionDegrees,WindSpeedMPH,WindSpeedGustMPH,Humidity,HourlyPrecipIn,Conditions,Clouds,dailyrainin,SolarRadiationWatts/m^2,SoftwareType,DateUTC
2013-04-30 00:04:00,61.5,54.2,29.77,SSE,158,6.0,12.0,77,0.00,CLR,CLR,0.00,0.0,WeatherDisplay:10.37,2013-04-30 05:04:00,
2013-04-30 00:09:00,61.5,54.2,29.78,SSE,161,6.0,9.0,77,0.00,CLR,CLR,0.00,0.0,WeatherDisplay:10.37,2013-04-30 05:09:00,
2013-04-30 00:14:00,61.5,54.2,29.78,SSE,159,5.0,9.0,77,0.00,CLR,CLR,0.00,0.0,WeatherDisplay:10.37,2013-04-30 05:14:00,
2013-04-30 00:19:00,61.4,54.1,29.78,SSE,159,7.0,12.0,77,0.00,CLR,CLR,0.00,0.0,WeatherDisplay:10.37,2013-04-30 05:19:00,
2013-04-30 00:24:00,61.5,53.9,29.78,SSE,158,8.0,12.0,76,0.00,CLR,CLR,0.00,0.0,WeatherDisplay:10.37,2013-04-30 05:24:00,
2013-04-30 00:29:00,61.6,54.0,29.78,SSE,159,7.0,12.0,76,0.00,CLR,CLR,0.00,0.0,WeatherDisplay:10.37,2013-04-30 05:29:00,
2013-04-30 00:34:00,61.5,53.8,29.78,SSE,161,5.0,10.0,76,0.00,CLR,CLR,0.00,0.0,WeatherDisplay:10.37,2013-04-30 05:34:00,
2013-04-30 00:39:00,61.3,53.7,29.78,SSE,164,6.0,10.0,76,0.00,CLR,CLR,0.00,0.0,WeatherDisplay:10.37,2013-04-30 05:39:00,
2013-04-30 00:44:00,61.2,53.9,29.77,SSE,162,7.0,10.0,77,0.00,CLR,CLR,0.00,0.0,WeatherDisplay:10.37,2013-04-30 05:44:00,
2013-04-30 00:49:00,61.1,53.8,29.77,SSE,161,7.0,10.0,77,0.00,CLR,CLR,0.00,0.0,WeatherDisplay:10.37,2013-04-30 05:49:00,
2013-04-30 00:54:00,61.2,54.0,29.77,SSE,160,7.0,12.0,77,0.00,CLR,CLR,0.00,0.0,WeatherDisplay:10.37,2013-04-30 05:54:00,
2013-04-30 00:59:00,61.2,53.9,29.77,SSE,162,8.0,12.0,77,0.00,CLR,CLR,0.00,0.0,WeatherDisplay:10.37,2013-04-30 05:59:00,
2013-04-30 01:04:00,61.1,53.8,29.78,SSE,165,8.0,12.0,77,0.00,CLR,CLR,0.00,0.0,WeatherDisplay:10.37,2013-04-30 06:04:00,
2013-04-30 01:09:00,61.1,53.8,29.77,SSE,164,6.0,12.0,77,0.00,CLR,CLR,0.00,0.0,WeatherDisplay:10.37,2013-04-30 06:09:00,
2013-04-30 01:14:00,61.1,53.8,29.77,SSE,163,7.0,13.0,77,0.00,CLR,CLR,0.00,0.0,WeatherDisplay:10.37,2013-04-30 06:14:00,
2013-04-30 01:19:00,61.0,53.7,29.77,SSE,166,5.0,10.0,77,0.00,CLR,CLR,0.00,0.0,WeatherDisplay:10.37,2013-04-30 06:19:00,
2013-04-30 01:24:00,60.9,53.7,29.77,SSE,163,12.0,14.0,77,0.00,CLR,CLR,0.00,0.0,WeatherDisplay:10.37,2013-04-30 06:24:00,
2013-04-30 01:29:00,61.1,53.8,29.76,SSE,161,9.0,14.0,77,0.00,CLR,CLR,0.00,0.0,WeatherDisplay:10.37,2013-04-30 06:29:00,
2013-04-30 01:34:00,61.0,53.7,29.77,SSE,162,8.0,12.0,77,0.00,CLR,CLR,0.00,0.0,WeatherDisplay:10.37,2013-04-30 06:34:00,
2013-04-30 01:39:00,60.9,53.6,29.77,SSE,158,8.0,13.0,77,0.00,CLR,CLR,0.00,0.0,WeatherDisplay:10.37,2013-04-30 06:39:00,
2013-04-30 01:44:00,60.9,54.0,29.76,SSE,156,10.0,21.0,78,0.00,CLR,CLR,0.00,0.0,WeatherDisplay:10.37,2013-04-30 06:44:00,
2013-04-30 01:49:00,61.0,53.7,29.76,SSE,157,6.0,13.0,77,0.00,CLR,CLR,0.00,0.0,WeatherDisplay:10.37,2013-04-30 06:49:00,
2013-04-30 01:54:00,60.9,54.0,29.76,SSE,157,8.0,13.0,78,0.00,CLR,CLR,0.00,0.0,WeatherDisplay:10.37,2013-04-30 06:54:00,
2013-04-30 01:59:00,60.8,53.9,29.76,SSE,156,9.0,15.0,78,0.00,CLR,CLR,0.00,0.0,WeatherDisplay:10.37,2013-04-30 06:59:00,
2013-04-30 02:04:00,60.8,53.9,29.76,SSE,159,9.0,13.0,78,0.00,CLR,CLR,0.00,0.0,WeatherDisplay:10.37,2013-04-30 07:04:00,
2013-04-30 02:09:00,60.7,53.8,29.76,SSE,162,10.0,16.0,78,0.00,CLR,CLR,0.00,0.0,WeatherDisplay:10.37,2013-04-30 07:09:00,
2013-04-30 02:14:00,60.7,53.8,29.76,SSE,160,8.0,14.0,78,0.00,CLR,CLR,0.00,0.0,WeatherDisplay:10.37,2013-04-30 07:14:00,
2013-04-30 02:19:00,60.7,53.8,29.76,SSE,160,7.0,13.0,78,0.00,CLR,CLR,0.00,0.0,WeatherDisplay:10.37,2013-04-30 07:19:00,
2013-04-30 02:24:00,60.6,53.7,29.76,SSE,159,7.0,12.0,78,0.00,CLR,CLR,0.00,0.0,WeatherDisplay:10.37,2013-04-30 07:24:00,
2013-04-30 02:29:00,60.5,53.6,29.76,SSE,160,7.0,14.0,78,0.00,CLR,CLR,0.00,0.0,WeatherDisplay:10.37,2013-04-30 07:29:00,
2013-04-30 02:34:00,60.5,53.6,29.76,SSE,159,7.0,16.0,78,0.00,CLR,CLR,0.00,0.0,WeatherDisplay:10.37,2013-04-30 07:34:00,
2013-04-30 02:39:00,60.5,53.6,29.76,SSE,156,8.0,13.0,78,0.00,CLR,CLR,0.00,0.0,WeatherDisplay:10.37,2013-04-30 07:39:00,
2013-04-30 02:44:00,60.5,53.9,29.76,SSE,156,8.0,15.0,79,0.00,CLR,CLR,0.00,0.0,WeatherDisplay:10.37,2013-04-30 07:44:00,
2013-04-30 02:49:00,60.4,53.9,29.76,SSE,161,7.0,12.0,79,0.00,CLR,CLR,0.00,0.0,WeatherDisplay:10.37,2013-04-30 07:49:00,
2013-04-30 02:54:00,60.4,53.9,29.76,SSE,162,8.0,14.0,79,0.00,CLR,CLR,0.00,0.0,WeatherDisplay:10.37,2013-04-30 07:54:00,
2013-04-30 02:59:00,60.3,53.8,29.77,SSE,161,6.0,12.0,79,0.00,CLR,CLR,0.00,0.0,WeatherDisplay:10.37,2013-04-30 07:59:00,
2013-04-30 03:04:00,60.2,53.7,29.77,South,171,6.0,10.0,79,0.00,CLR,CLR,0.00,0.0,WeatherDisplay:10.37,2013-04-30 08:04:00,
2013-04-30 03:09:00,60.0,53.8,29.77,South,169,5.0,12.0,80,0.00,CLR,CLR,0.00,0.0,WeatherDisplay:10.37,2013-04-30 08:09:00,
2013-04-30 03:14:00,60.0,53.9,29.77,SSE,166,7.0,13.0,80,0.00,CLR,CLR,0.00,0.0,WeatherDisplay:10.37,2013-04-30 08:14:00,
2013-04-30 03:19:00,60.1,53.9,29.77,SSE,161,8.0,12.0,80,0.00,CLR,CLR,0.00,0.0,WeatherDisplay:10.37,2013-04-30 08:19:00,
2013-04-30 03:24:00,60.1,53.9,29.77,SSE,165,7.0,14.0,80,0.00,CLR,CLR,0.00,0.0,WeatherDisplay:10.37,2013-04-30 08:24:00,
2013-04-30 03:29:00,60.1,53.9,29.76,SSE,165,7.0,13.0,80,0.00,CLR,CLR,0.00,0.0,WeatherDisplay:10.37,2013-04-30 08:29:00,
2013-04-30 03:34:00,60.1,53.9,29.76,SSE,164,7.0,12.0,80,0.00,CLR,CLR,0.00,0.0,WeatherDisplay:10.37,2013-04-30 08:34:00,
2013-04-30 03:39:00,60.0,53.8,29.77,SSE,164,9.0,15.0,80,0.00,CLR,CLR,0.00,0.0,WeatherDisplay:10.37,2013-04-30 08:39:00,
2013-04-30 03:49:00,60.0,54.2,29.77,SSE,166,7.0,12.0,81,0.00,CLR,CLR,0.00,0.0,WeatherDisplay:10.37,2013-04-30 08:49:00,
2013-04-30 03:54:00,60.0,54.2,29.78,SSE,165,7.0,14.0,81,0.00,CLR,CLR,0.00,0.0,WeatherDisplay:10.37,2013-04-30 08:54:00,
2013-04-30 03:59:00,60.1,53.9,29.77,SSE,163,8.0,14.0,80,0.00,CLR,CLR,0.00,0.0,WeatherDisplay:10.37,2013-04-30 08:59:00,
2013-04-30 04:04:00,60.2,54.0,29.77,SSE,163,8.0,14.0,80,0.00,CLR,CLR,0.00,0.0,WeatherDisplay:10.37,2013-04-30 09:04:00,
2013-04-30 04:09:00,60.0,53.8,29.77,SSE,165,7.0,14.0,80,0.00,CLR,CLR,0.00,0.0,WeatherDisplay:10.37,2013-04-30 09:09:00,
2013-04-30 04:14:00,60.0,54.2,29.77,SSE,163,7.0,15.0,81,0.00,CLR,CLR,0.00,0.0,WeatherDisplay:10.37,2013-04-30 09:14:00,
2013-04-30 04:19:00,60.0,54.2,29.77,SSE,161,9.0,16.0,81,0.00,CLR,CLR,0.00,0.0,WeatherDisplay:10.37,2013-04-30 09:19:00,
2013-04-30 04:24:00,59.9,54.1,29.77,SSE,162,7.0,14.0,81,0.00,CLR,CLR,0.00,0.0,WeatherDisplay:10.37,2013-04-30 09:24:00,
2013-04-30 04:29:00,59.8,54.0,29.77,SSE,161,8.0,12.0,81,0.00,CLR,CLR,0.00,0.0,WeatherDisplay:10.37,2013-04-30 09:29:00,
2013-04-30 04:34:00,59.8,54.0,29.77,SSE,162,7.0,12.0,81,0.00,CLR,CLR,0.00,0.0,WeatherDisplay:10.37,2013-04-30 09:34:00,
2013-04-30 04:39:00,59.8,54.0,29.77,SSE,162,8.0,15.0,81,0.00,CLR,CLR,0.00,0.0,WeatherDisplay:10.37,2013-04-30 09:39:00,
2013-04-30 04:44:00,59.8,54.0,29.77,SSE,159,7.0,13.0,81,0.00,CLR,CLR,0.00,0.0,WeatherDisplay:10.37,2013-04-30 09:44:00,
2013-04-30 04:49:00,59.7,53.9,29.77,SSE,162,8.0,13.0,81,0.00,CLR,CLR,0.00,0.0,WeatherDisplay:10.37,2013-04-30 09:49:00,
2013-04-30 04:54:00,59.7,53.9,29.77,SSE,167,7.0,15.0,81,0.00,CLR,CLR,0.00,0.0,WeatherDisplay:10.37,2013-04-30 09:54:00,
2013-04-30 04:59:00,59.6,53.7,29.77,SSE,167,8.0,12.0,81,0.00,CLR,CLR,0.00,0.0,WeatherDisplay:10.37,2013-04-30 09:59:00,
2013-04-30 05:04:00,59.4,53.9,29.77,SSE,165,9.0,13.0,82,0.00,CLR,CLR,0.00,0.0,WeatherDisplay:10.37,2013-04-30 10:04:00,
2013-04-30 05:09:00,59.5,54.0,29.77,SSE,164,9.0,15.0,82,0.00,CLR,CLR,0.00,0.0,WeatherDisplay:10.37,2013-04-30 10:09:00,
2013-04-30 05:14:00,59.5,54.0,29.77,SSE,166,7.0,12.0,82,0.00,CLR,CLR,0.00,0.0,WeatherDisplay:10.37,2013-04-30 10:14:00,
2013-04-30 05:19:00,59.4,53.9,29.77,South,169,7.0,12.0,82,0.00,CLR,CLR,0.00,0.0,WeatherDisplay:10.37,2013-04-30 10:19:00,
2013-04-30 05:24:00,59.4,53.9,29.77,South,169,7.0,12.0,82,0.00,CLR,CLR,0.00,0.0,WeatherDisplay:10.37,2013-04-30 10:24:00,
2013-04-30 05:29:00,59.2,53.7,29.77,South,169,7.0,12.0,82,0.00,CLR,CLR,0.00,0.0,WeatherDisplay:10.37,2013-04-30 10:29:00,
2013-04-30 05:34:00,59.0,53.8,29.77,SSE,166,5.0,12.0,83,0.00,CLR,CLR,0.00,0.0,WeatherDisplay:10.37,2013-04-30 10:34:00,
2013-04-30 05:39:00,58.8,53.6,29.77,SSE,165,5.0,9.0,83,0.00,CLR,CLR,0.00,0.0,WeatherDisplay:10.37,2013-04-30 10:39:00,
2013-04-30 05:44:00,58.7,53.9,29.77,SSE,166,5.0,10.0,84,0.00,CLR,CLR,0.00,0.0,WeatherDisplay:10.37,2013-04-30 10:44:00,
2013-04-30 05:49:00,58.6,53.8,29.77,SSE,167,6.0,9.0,84,0.00,CLR,CLR,0.00,0.0,WeatherDisplay:10.37,2013-04-30 10:49:00,
2013-04-30 05:54:00,58.5,53.7,29.77,SSE,160,7.0,9.0,84,0.00,CLR,CLR,0.00,0.0,WeatherDisplay:10.37,2013-04-30 10:54:00,
2013-04-30 05:59:00,58.3,53.5,29.78,SSE,163,5.0,8.0,84,0.00,CLR,CLR,0.00,0.0,WeatherDisplay:10.37,2013-04-30 10:59:00,
2013-04-30 06:04:00,58.2,53.7,29.78,SSE,168,5.0,9.0,85,0.00,CLR,CLR,0.00,0.0,WeatherDisplay:10.37,2013-04-30 11:04:00,
2013-04-30 06:09:00,58.2,53.7,29.79,SSE,166,5.0,9.0,85,0.00,CLR,CLR,0.00,0.0,WeatherDisplay:10.37,2013-04-30 11:09:00,
2013-04-30 06:14:00,58.1,53.7,29.79,SSE,166,6.0,8.0,85,0.00,CLR,CLR,0.00,0.0,WeatherDisplay:10.37,2013-04-30 11:14:00,
2013-04-30 06:19:00,58.1,53.7,29.80,SSE,166,5.0,9.0,85,0.00,CLR,CLR,0.00,0.0,WeatherDisplay:10.37,2013-04-30 11:19:00,
2013-04-30 06:24:00,58.1,53.9,29.80,SSE,165,6.0,9.0,86,0.00,CLR,CLR,0.00,0.0,WeatherDisplay:10.37,2013-04-30 11:24:00,
2013-04-30 06:29:00,58.2,54.0,29.80,SSE,162,6.0,9.0,86,0.00,CLR,CLR,0.00,0.0,WeatherDisplay:10.37,2013-04-30 11:29:00,
2013-04-30 06:34:00,58.2,54.0,29.80,SSE,161,6.0,9.0,86,0.00,CLR,CLR,0.00,0.0,WeatherDisplay:10.37,2013-04-30 11:34:00,
2013-04-30 06:39:00,58.2,54.1,29.80,SSE,166,6.0,8.0,86,0.00,CLR,CLR,0.00,0.0,WeatherDisplay:10.37,2013-04-30 11:39:00,
2013-04-30 06:44:00,58.4,54.2,29.80,SSE,164,6.0,14.0,86,0.00,CLR,CLR,0.00,0.0,WeatherDisplay:10.37,2013-04-30 11:44:00,
2013-04-30 06:49:00,58.5,54.0,29.80,SSE,164,7.0,10.0,85,0.00,CLR,CLR,0.00,0.0,WeatherDisplay:10.37,2013-04-30 11:49:00,
2013-04-30 06:54:00,58.7,54.2,29.80,SSE,162,7.0,12.0,85,0.00,CLR,CLR,0.00,0.0,WeatherDisplay:10.37,2013-04-30 11:54:00,
2013-04-30 06:59:00,59.0,54.5,29.80,SSE,165,8.0,12.0,85,0.00,CLR,CLR,0.00,0.0,WeatherDisplay:10.37,2013-04-30 11:59:00,
2013-04-30 07:04:00,59.2,54.4,29.80,SSE,168,7.0,12.0,84,0.00,CLR,CLR,0.00,0.0,WeatherDisplay:10.37,2013-04-30 12:04:00,
2013-04-30 07:09:00,59.5,54.6,29.80,SSE,167,6.0,12.0,84,0.00,CLR,CLR,0.00,0.0,WeatherDisplay:10.37,2013-04-30 12:09:00,
2013-04-30 07:14:00,59.6,54.8,29.80,SSE,168,7.0,10.0,84,0.00,CLR,CLR,0.00,0.0,WeatherDisplay:10.37,2013-04-30 12:14:00,
2013-04-30 07:19:00,59.8,54.9,29.80,South,170,7.0,13.0,84,0.00,CLR,CLR,0.00,0.0,WeatherDisplay:10.37,2013-04-30 12:19:00,
2013-04-30 07:24:00,59.9,55.0,29.80,South,170,6.0,12.0,84,0.00,CLR,CLR,0.00,0.0,WeatherDisplay:10.37,2013-04-30 12:24:00,
2013-04-30 07:29:00,59.9,55.0,29.80,South,169,8.0,12.0,84,0.00,CLR,CLR,0.00,0.0,WeatherDisplay:10.37,2013-04-30 12:29:00,
2013-04-30 07:34:00,59.9,55.1,29.80,South,171,5.0,10.0,84,0.00,CLR,CLR,0.00,0.0,WeatherDisplay:10.37,2013-04-30 12:34:00,
2013-04-30 07:39:00,60.0,55.2,29.81,South,174,7.0,14.0,84,0.00,CLR,CLR,0.00,0.0,WeatherDisplay:10.37,2013-04-30 12:39:00,
2013-04-30 07:44:00,60.3,55.4,29.81,South,172,7.0,12.0,84,0.00,CLR,CLR,0.00,0.0,WeatherDisplay:10.37,2013-04-30 12:44:00,
2013-04-30 07:49:00,60.5,55.6,29.81,South,174,5.0,9.0,84,0.00,CLR,CLR,0.00,0.0,WeatherDisplay:10.37,2013-04-30 12:49:00,
2013-04-30 07:54:00,61.1,55.9,29.81,South,171,6.0,12.0,83,0.00,CLR,CLR,0.00,0.0,WeatherDisplay:10.37,2013-04-30 12:54:00,
2013-04-30 07:59:00,62.0,56.5,29.81,SSE,166,6.0,10.0,82,0.00,CLR,CLR,0.00,0.0,WeatherDisplay:10.37,2013-04-30 12:59:00,
2013-04-30 08:04:00,62.9,57.3,29.81,South,175,5.0,12.0,82,0.00,CLR,CLR,0.00,0.0,WeatherDisplay:10.37,2013-04-30 13:04:00,
2013-04-30 08:09:00,63.6,56.9,29.81,South,183,6.0,12.0,79,0.00,CLR,CLR,0.00,0.0,WeatherDisplay:10.37,2013-04-30 13:09:00,
2013-04-30 08:14:00,64.1,57.4,29.80,South,181,5.0,12.0,79,0.00,CLR,CLR,0.00,0.0,WeatherDisplay:10.37,2013-04-30 13:14:00,
2013-04-30 08:19:00,64.8,57.8,29.80,South,184,6.0,12.0,78,0.00,CLR,CLR,0.00,0.0,WeatherDisplay:10.37,2013-04-30 13:19:00,
2013-04-30 08:24:00,65.6,58.1,29.80,South,189,5.0,8.0,77,0.00,CLR,CLR,0.00,0.0,WeatherDisplay:10.37,2013-04-30 13:24:00,
2013-04-30 08:29:00,66.2,58.8,29.80,South,186,6.0,10.0,77,0.00,CLR,CLR,0.00,0.0,WeatherDisplay:10.37,2013-04-30 13:29:00,
2013-04-30 08:34:00,66.2,58.4,29.80,South,190,5.0,9.0,76,0.00,CLR,CLR,0.00,0.0,WeatherDisplay:10.37,2013-04-30 13:34:00,
2013-04-30 08:39:00,66.0,57.8,29.80,South,185,7.0,12.0,75,0.00,CLR,CLR,0.00,0.0,WeatherDisplay:10.37,2013-04-30 13:39:00,
2013-04-30 08:44:00,65.6,58.2,29.80,South,187,6.0,9.0,77,0.00,CLR,CLR,0.00,0.0,WeatherDisplay:10.37,2013-04-30 13:44:00,
2013-04-30 08:49:00,65.4,58.0,29.80,South,189,6.0,12.0,77,0.00,CLR,CLR,0.00,0.0,WeatherDisplay:10.37,2013-04-30 13:49:00,
2013-04-30 08:54:00,65.4,58.0,29.80,South,189,6.0,9.0,77,0.00,CLR,CLR,0.00,0.0,WeatherDisplay:10.37,2013-04-30 13:54:00,
2013-04-30 08:59:00,65.7,58.3,29.80,South,189,6.0,9.0,77,0.00,CLR,CLR,0.00,0.0,WeatherDisplay:10.37,2013-04-30 13:59:00,
2013-04-30 09:04:00,66.0,58.6,29.79,South,188,6.0,12.0,77,0.00,CLR,CLR,0.00,0.0,WeatherDisplay:10.37,2013-04-30 14:04:00,
2013-04-30 09:09:00,66.2,58.5,29.79,South,190,6.0,10.0,76,0.00,CLR,CLR,0.00,0.0,WeatherDisplay:10.37,2013-04-30 14:09:00,
2013-04-30 09:14:00,66.3,58.5,29.79,South,189,5.0,10.0,76,0.00,CLR,CLR,0.00,0.0,WeatherDisplay:10.37,2013-04-30 14:14:00,
2013-04-30 09:19:00,66.4,58.6,29.79,South,184,6.0,11.0,76,0.00,CLR,CLR,0.00,0.0,WeatherDisplay:10.37,2013-04-30 14:19:00,
2013-04-30 09:24:00,66.5,58.7,29.79,South,180,6.0,10.0,76,0.00,CLR,CLR,0.00,0.0,WeatherDisplay:10.37,2013-04-30 14:24:00,
2013-04-30 09:29:00,66.7,59.3,29.79,SSW,193,5.0,10.0,77,0.00,CLR,CLR,0.00,0.0,WeatherDisplay:10.37,2013-04-30 14:29:00,
2013-04-30 09:34:00,66.8,59.0,29.79,SSW,195,6.0,10.0,76,0.00,CLR,CLR,0.00,0.0,WeatherDisplay:10.37,2013-04-30 14:34:00,
2013-04-30 09:39:00,67.1,59.3,29.79,South,180,5.0,8.0,76,0.00,CLR,CLR,0.00,0.0,WeatherDisplay:10.37,2013-04-30 14:39:00,
2013-04-30 09:44:00,67.4,59.6,29.79,South,182,5.0,9.0,76,0.00,CLR,CLR,0.00,0.0,WeatherDisplay:10.37,2013-04-30 14:44:00,
2013-04-30 09:49:00,67.6,59.4,29.79,South,188,6.0,10.0,75,0.00,CLR,CLR,0.00,0.0,WeatherDisplay:10.37,2013-04-30 14:49:00,
2013-04-30 09:54:00,67.9,59.7,29.79,SSW,194,3.0,13.0,75,0.00,CLR,CLR,0.00,0.0,WeatherDisplay:10.37,2013-04-30 14:54:00,
2013-04-30 09:59:00,68.3,60.1,29.80,SSW,195,5.0,10.0,75,0.00,CLR,CLR,0.00,0.0,WeatherDisplay:10.37,2013-04-30 14:59:00,
2013-04-30 10:04:00,68.4,59.4,29.80,South,190,5.0,8.0,73,0.00,CLR,CLR,0.00,0.0,WeatherDisplay:10.37,2013-04-30 15:04:00,
2013-04-30 10:09:00,68.5,59.9,29.80,South,186,5.0,10.0,74,0.00,CLR,CLR,0.00,0.0,WeatherDisplay:10.37,2013-04-30 15:09:00,
2013-04-30 10:14:00,68.5,60.3,29.80,South,186,5.0,12.0,75,0.00,CLR,CLR,0.00,0.0,WeatherDisplay:10.37,2013-04-30 15:14:00,
2013-04-30 10:19:00,68.8,60.5,29.80,South,179,5.0,9.0,75,0.00,CLR,CLR,0.00,0.0,WeatherDisplay:10.37,2013-04-30 15:19:00,
2013-04-30 10:24:00,68.8,60.2,29.80,SSE,166,7.0,13.0,74,0.00,CLR,CLR,0.00,0.0,WeatherDisplay:10.37,2013-04-30 15:24:00,
2013-04-30 10:29:00,68.9,60.3,29.80,South,173,6.0,13.0,74,0.00,CLR,CLR,0.00,0.0,WeatherDisplay:10.37,2013-04-30 15:29:00,
2013-04-30 10:34:00,69.7,60.7,29.80,South,181,7.0,12.0,73,0.00,CLR,CLR,0.00,0.0,WeatherDisplay:10.37,2013-04-30 15:34:00,
2013-04-30 10:44:00,71.8,61.5,29.80,South,186,7.0,12.0,70,0.00,CLR,CLR,0.00,0.0,WeatherDisplay:10.37,2013-04-30 15:44:00,
2013-04-30 10:49:00,72.6,62.3,29.80,South,184,6.0,10.0,70,0.00,CLR,CLR,0.00,0.0,WeatherDisplay:10.37,2013-04-30 15:49:00,
2013-04-30 10:59:00,73.4,62.6,29.80,South,183,6.0,12.0,69,0.00,CLR,CLR,0.00,0.0,WeatherDisplay:10.37,2013-04-30 15:59:00,
2013-04-30 11:04:00,74.0,62.8,29.80,SSW,192,7.0,12.0,68,0.00,CLR,CLR,0.00,0.0,WeatherDisplay:10.37,2013-04-30 16:04:00,
2013-04-30 11:09:00,74.5,62.9,29.80,SSW,193,5.0,15.0,67,0.00,CLR,CLR,0.00,0.0,WeatherDisplay:10.37,2013-04-30 16:09:00,
2013-04-30 11:14:00,74.9,61.9,29.80,SSW,202,10.0,15.0,64,0.00,CLR,CLR,0.00,0.0,WeatherDisplay:10.37,2013-04-30 16:14:00,
2013-04-30 11:19:00,75.2,63.1,29.80,SSW,205,6.0,12.0,66,0.00,CLR,CLR,0.00,0.0,WeatherDisplay:10.37,2013-04-30 16:19:00,
2013-04-30 11:24:00,75.5,62.9,29.80,SSW,200,6.0,15.0,65,0.00,CLR,CLR,0.00,0.0,WeatherDisplay:10.37,2013-04-30 16:24:00,
2013-04-30 11:29:00,75.7,62.6,29.80,SSW,201,5.0,12.0,64,0.00,CLR,CLR,0.00,0.0,WeatherDisplay:10.37,2013-04-30 16:29:00,
2013-04-30 11:34:00,75.9,62.8,29.80,SSW,196,7.0,12.0,64,0.00,CLR,CLR,0.00,0.0,WeatherDisplay:10.37,2013-04-30 16:34:00,
2013-04-30 11:39:00,76.2,63.2,29.80,SSW,196,8.0,15.0,64,0.00,CLR,CLR,0.00,0.0,WeatherDisplay:10.37,2013-04-30 16:39:00,
2013-04-30 11:44:00,76.5,62.9,29.80,SSW,194,7.0,16.0,63,0.00,CLR,CLR,0.00,0.0,WeatherDisplay:10.37,2013-04-30 16:44:00,
2013-04-30 11:49:00,76.9,62.4,29.80,SSW,193,6.0,12.0,61,0.00,CLR,CLR,0.00,0.0,WeatherDisplay:10.37,2013-04-30 16:49:00,
2013-04-30 11:54:00,77.3,62.8,29.80,SSW,195,6.0,13.0,61,0.00,CLR,CLR,0.00,0.0,WeatherDisplay:10.37,2013-04-30 16:54:00,
2013-04-30 11:59:00,77.6,63.1,29.80,SSW,205,10.0,18.0,61,0.00,CLR,CLR,0.00,0.0,WeatherDisplay:10.37,2013-04-30 16:59:00,
2013-04-30 12:04:00,77.7,62.2,29.80,SSW,199,7.0,15.0,59,0.00,CLR,CLR,0.00,0.0,WeatherDisplay:10.37,2013-04-30 17:04:00,
2013-04-30 12:09:00,77.8,62.8,29.80,SSW,198,7.0,13.0,60,0.00,CLR,CLR,0.00,0.0,WeatherDisplay:10.37,2013-04-30 17:09:00,
2013-04-30 12:14:00,78.1,63.1,29.80,SSW,208,8.0,16.0,60,0.00,CLR,CLR,0.00,0.0,WeatherDisplay:10.37,2013-04-30 17:14:00,
2013-04-30 12:19:00,78.0,63.0,29.80,SSW,209,8.0,17.0,60,0.00,CLR,CLR,0.00,0.0,WeatherDisplay:10.37,2013-04-30 17:19:00,
2013-04-30 12:24:00,78.1,62.1,29.79,SSW,205,5.0,12.0,58,0.00,CLR,CLR,0.00,0.0,WeatherDisplay:10.37,2013-04-30 17:24:00,
2013-04-30 12:29:00,78.2,63.6,29.79,SSW,194,7.0,13.0,61,0.00,CLR,CLR,0.00,0.0,WeatherDisplay:10.37,2013-04-30 17:29:00,
2013-04-30 12:34:00,78.9,63.3,29.79,South,191,7.0,13.0,59,0.00,CLR,CLR,0.00,0.0,WeatherDisplay:10.37,2013-04-30 17:34:00,
2013-04-30 12:39:00,79.4,63.8,29.79,SSW,198,6.0,14.0,59,0.00,CLR,CLR,0.00,0.0,WeatherDisplay:10.37,2013-04-30 17:39:00,
2013-04-30 12:44:00,79.5,62.9,29.79,SSW,209,12.0,16.0,57,0.00,CLR,CLR,0.00,0.0,WeatherDisplay:10.37,2013-04-30 17:44:00,
2013-04-30 12:49:00,79.4,62.8,29.79,SSW,203,9.0,14.0,57,0.00,CLR,CLR,0.00,0.0,WeatherDisplay:10.37,2013-04-30 17:49:00,
2013-04-30 12:54:00,79.7,63.1,29.79,SSW,204,7.0,15.0,57,0.00,CLR,CLR,0.00,0.0,WeatherDisplay:10.37,2013-04-30 17:54:00,
2013-04-30 12:59:00,80.0,62.4,29.79,SW,215,12.0,16.0,55,0.00,CLR,CLR,0.00,0.0,WeatherDisplay:10.37,2013-04-30 17:59:00,
2013-04-30 13:04:00,80.3,63.7,29.79,SSW,207,6.0,15.0,57,0.00,CLR,CLR,0.00,0.0,WeatherDisplay:10.37,2013-04-30 18:04:00,
2013-04-30 13:09:00,80.5,63.4,29.78,SSW,194,8.0,14.0,56,0.00,CLR,CLR,0.00,0.0,WeatherDisplay:10.37,2013-04-30 18:09:00,
2013-04-30 13:19:00,81.1,63.9,29.78,SSW,196,7.0,16.0,56,0.00,CLR,CLR,0.00,0.0,WeatherDisplay:10.37,2013-04-30 18:19:00,
2013-04-30 13:24:00,81.4,63.7,29.78,SSW,194,7.0,12.0,55,0.00,CLR,CLR,0.00,0.0,WeatherDisplay:10.37,2013-04-30 18:24:00,
2013-04-30 13:29:00,81.7,63.4,29.78,South,190,6.0,10.0,54,0.00,CLR,CLR,0.00,0.0,WeatherDisplay:10.37,2013-04-30 18:29:00,
2013-04-30 13:34:00,82.0,62.6,29.78,South,188,7.0,12.0,52,0.00,CLR,CLR,0.00,0.0,WeatherDisplay:10.37,2013-04-30 18:34:00,
2013-04-30 13:39:00,82.3,63.4,29.78,SSW,194,6.0,13.0,53,0.00,CLR,CLR,0.00,0.0,WeatherDisplay:10.37,2013-04-30 18:39:00,
2013-04-30 13:44:00,82.5,62.5,29.78,South,187,8.0,14.0,51,0.00,CLR,CLR,0.00,0.0,WeatherDisplay:10.37,2013-04-30 18:44:00,
2013-04-30 13:49:00,82.6,63.7,29.78,South,184,7.0,12.0,53,0.00,CLR,CLR,0.00,0.0,WeatherDisplay:10.37,2013-04-30 18:49:00,
2013-04-30 13:54:00,82.9,63.5,29.78,South,185,6.0,12.0,52,0.00,CLR,CLR,0.00,0.0,WeatherDisplay:10.37,2013-04-30 18:54:00,
2013-04-30 13:59:00,82.8,62.3,29.78,SSW,196,13.0,18.0,50,0.00,CLR,CLR,0.00,0.0,WeatherDisplay:10.37,2013-04-30 18:59:00,
2013-04-30 14:04:00,82.6,62.7,29.78,South,191,7.0,12.0,51,0.00,CLR,CLR,0.00,0.0,WeatherDisplay:10.37,2013-04-30 19:04:00,
2013-04-30 14:09:00,83.0,63.0,29.78,South,190,7.0,17.0,51,0.00,CLR,CLR,0.00,0.0,WeatherDisplay:10.37,2013-04-30 19:09:00,
2013-04-30 14:14:00,83.4,64.4,29.78,SSW,203,7.0,17.0,53,0.00,CLR,CLR,0.00,0.0,WeatherDisplay:10.37,2013-04-30 19:14:00,
2013-04-30 14:19:00,83.9,63.2,29.78,SSW,197,7.0,13.0,50,0.00,CLR,CLR,0.00,0.0,WeatherDisplay:10.37,2013-04-30 19:19:00,
2013-04-30 14:24:00,84.0,62.8,29.78,SSW,209,10.0,17.0,49,0.00,CLR,CLR,0.00,0.0,WeatherDisplay:10.37,2013-04-30 19:24:00,
2013-04-30 14:29:00,83.7,63.1,29.78,SSW,208,7.0,12.0,50,0.00,CLR,CLR,0.00,0.0,WeatherDisplay:10.37,2013-04-30 19:29:00,
2013-04-30 14:34:00,83.9,62.7,29.77,SSW,200,7.0,12.0,49,0.00,CLR,CLR,0.00,0.0,WeatherDisplay:10.37,2013-04-30 19:34:00,
2013-04-30 14:39:00,84.3,64.2,29.78,SSW,193,6.0,15.0,51,0.00,CLR,CLR,0.00,0.0,WeatherDisplay:10.37,2013-04-30 19:39:00,
2013-04-30 14:44:00,84.5,63.2,29.77,South,189,8.0,22.0,49,0.00,CLR,CLR,0.00,0.0,WeatherDisplay:10.37,2013-04-30 19:44:00,
2013-04-30 14:49:00,84.7,63.4,29.77,SSW,192,6.0,14.0,49,0.00,CLR,CLR,0.00,0.0,WeatherDisplay:10.37,2013-04-30 19:49:00,
2013-04-30 14:54:00,85.0,61.9,29.77,South,190,7.0,13.0,46,0.00,CLR,CLR,0.00,0.0,WeatherDisplay:10.37,2013-04-30 19:54:00,
2013-04-30 14:59:00,85.0,61.9,29.77,South,184,8.0,13.0,46,0.00,CLR,CLR,0.00,0.0,WeatherDisplay:10.37,2013-04-30 19:59:00,
2013-04-30 15:04:00,84.7,62.8,29.77,South,182,6.0,12.0,48,0.00,CLR,CLR,0.00,0.0,WeatherDisplay:10.37,2013-04-30 20:04:00,
2013-04-30 15:09:00,85.0,61.9,29.77,SSW,195,8.0,14.0,46,0.00,CLR,CLR,0.00,0.0,WeatherDisplay:10.37,2013-04-30 20:09:00,
2013-04-30 15:14:00,84.9,61.2,29.77,SSW,206,8.0,13.0,45,0.00,CLR,CLR,0.00,0.0,WeatherDisplay:10.37,2013-04-30 20:14:00,
2013-04-30 15:19:00,85.1,63.2,29.77,SSW,205,7.0,13.0,48,0.00,CLR,CLR,0.00,0.0,WeatherDisplay:10.37,2013-04-30 20:19:00,
2013-04-30 15:24:00,85.1,62.6,29.77,SSW,206,7.0,16.0,47,0.00,CLR,CLR,0.00,0.0,WeatherDisplay:10.37,2013-04-30 20:24:00,
2013-04-30 15:29:00,85.1,61.4,29.77,SSW,192,7.0,12.0,45,0.00,CLR,CLR,0.00,0.0,WeatherDisplay:10.37,2013-04-30 20:29:00,
2013-04-30 15:34:00,85.2,61.5,29.77,South,188,7.0,10.0,45,0.00,CLR,CLR,0.00,0.0,WeatherDisplay:10.37,2013-04-30 20:34:00,
2013-04-30 15:39:00,85.2,61.4,29.77,South,191,5.0,10.0,45,0.00,CLR,CLR,0.00,0.0,WeatherDisplay:10.37,2013-04-30 20:39:00,
2013-04-30 15:44:00,85.3,61.6,29.77,SSW,192,7.0,13.0,45,0.00,CLR,CLR,0.00,0.0,WeatherDisplay:10.37,2013-04-30 20:44:00,
2013-04-30 15:54:00,84.9,62.4,29.77,SSW,198,7.0,16.0,47,0.00,CLR,CLR,0.00,0.0,WeatherDisplay:10.37,2013-04-30 20:54:00,
2013-04-30 15:59:00,84.6,62.7,29.77,SSW,212,7.0,14.0,48,0.00,CLR,CLR,0.00,0.0,WeatherDisplay:10.37,2013-04-30 20:59:00,
2013-04-30 16:04:00,84.9,61.8,29.77,SSW,213,8.0,13.0,46,0.00,CLR,CLR,0.00,0.0,WeatherDisplay:10.37,2013-04-30 21:04:00,
2013-04-30 16:09:00,84.3,60.7,29.77,SSW,207,10.0,17.0,45,0.00,CLR,CLR,0.00,0.0,WeatherDisplay:10.37,2013-04-30 21:09:00,
2013-04-30 16:14:00,84.6,60.9,29.77,SSW,196,6.0,13.0,45,0.00,CLR,CLR,0.00,0.0,WeatherDisplay:10.37,2013-04-30 21:14:00,
2013-04-30 16:19:00,84.7,60.4,29.77,SSW,195,6.0,12.0,44,0.00,CLR,CLR,0.00,0.0,WeatherDisplay:10.37,2013-04-30 21:19:00,
2013-04-30 16:24:00,84.6,59.7,29.77,SSW,198,6.0,13.0,43,0.00,CLR,CLR,0.00,0.0,WeatherDisplay:10.37,2013-04-30 21:24:00,
2013-04-30 16:29:00,84.4,60.7,29.77,SSW,193,7.0,14.0,45,0.00,CLR,CLR,0.00,0.0,WeatherDisplay:10.37,2013-04-30 21:29:00,
2013-04-30 16:34:00,84.3,60.0,29.78,South,190,6.0,12.0,44,0.00,CLR,CLR,0.00,0.0,WeatherDisplay:10.37,2013-04-30 21:34:00,
2013-04-30 16:39:00,84.2,61.2,29.78,SSW,193,7.0,18.0,46,0.00,CLR,CLR,0.00,0.0,WeatherDisplay:10.37,2013-04-30 21:39:00,
2013-04-30 16:44:00,84.2,61.8,29.78,SSW,198,8.0,18.0,47,0.00,CLR,CLR,0.00,0.0,WeatherDisplay:10.37,2013-04-30 21:44:00,
2013-04-30 16:49:00,84.1,61.1,29.78,SSW,199,8.0,18.0,46,0.00,CLR,CLR,0.00,0.0,WeatherDisplay:10.37,2013-04-30 21:49:00,
2013-04-30 16:54:00,83.9,60.3,29.78,SSW,206,13.0,20.0,45,0.00,CLR,CLR,0.00,0.0,WeatherDisplay:10.37,2013-04-30 21:54:00,
2013-04-30 16:59:00,83.5,59.9,29.78,SSW,199,8.0,17.0,45,0.00,CLR,CLR,0.00,0.0,WeatherDisplay:10.37,2013-04-30 21:59:00,
2013-04-30 17:04:00,83.3,60.4,29.78,South,186,7.0,13.0,46,0.00,CLR,CLR,0.00,0.0,WeatherDisplay:10.37,2013-04-30 22:04:00,
2013-04-30 17:09:00,83.2,60.3,29.78,South,188,8.0,16.0,46,0.00,CLR,CLR,0.00,0.0,WeatherDisplay:10.37,2013-04-30 22:09:00,
2013-04-30 17:14:00,83.1,60.8,29.78,SSW,194,7.0,14.0,47,0.00,CLR,CLR,0.00,0.0,WeatherDisplay:10.37,2013-04-30 22:14:00,
2013-04-30 17:19:00,83.0,59.5,29.79,South,189,6.0,10.0,45,0.00,CLR,CLR,0.00,0.0,WeatherDisplay:10.37,2013-04-30 22:19:00,
2013-04-30 17:24:00,82.9,61.2,29.79,South,188,6.0,12.0,48,0.00,CLR,CLR,0.00,0.0,WeatherDisplay:10.37,2013-04-30 22:24:00,
2013-04-30 17:29:00,82.4,60.2,29.79,South,181,7.0,12.0,47,0.00,CLR,CLR,0.00,0.0,WeatherDisplay:10.37,2013-04-30 22:29:00,
2013-04-30 17:34:00,82.3,60.6,29.79,South,178,7.0,12.0,48,0.00,CLR,CLR,0.00,0.0,WeatherDisplay:10.37,2013-04-30 22:34:00,
2013-04-30 17:44:00,82.7,61.0,29.79,SSW,192,6.0,12.0,48,0.00,CLR,CLR,0.00,0.0,WeatherDisplay:10.37,2013-04-30 22:44:00,
2013-04-30 17:49:00,82.5,61.4,29.80,South,190,5.0,13.0,49,0.00,CLR,CLR,0.00,0.0,WeatherDisplay:10.37,2013-04-30 22:49:00,
2013-04-30 17:54:00,82.4,61.3,29.80,SSW,193,6.0,12.0,49,0.00,CLR,CLR,0.00,0.0,WeatherDisplay:10.37,2013-04-30 22:54:00,
2013-04-30 17:59:00,82.3,61.8,29.80,SSW,192,6.0,10.0,50,0.00,CLR,CLR,0.00,0.0,WeatherDisplay:10.37,2013-04-30 22:59:00,
2013-04-30 18:04:00,82.1,61.6,29.80,SSW,193,6.0,10.0,50,0.00,CLR,CLR,0.00,0.0,WeatherDisplay:10.37,2013-04-30 23:04:00,
2013-04-30 18:09:00,82.0,61.0,29.80,South,190,6.0,13.0,49,0.00,CLR,CLR,0.00,0.0,WeatherDisplay:10.37,2013-04-30 23:09:00,
2013-04-30 18:14:00,81.9,61.4,29.80,South,188,6.0,13.0,50,0.00,CLR,CLR,0.00,0.0,WeatherDisplay:10.37,2013-04-30 23:14:00,
2013-04-30 18:24:00,81.2,60.8,29.80,South,180,7.0,12.0,50,0.00,CLR,CLR,0.00,0.0,WeatherDisplay:10.37,2013-04-30 23:24:00,
2013-04-30 18:29:00,80.7,60.8,29.80,South,174,7.0,17.0,51,0.00,CLR,CLR,0.00,0.0,WeatherDisplay:10.37,2013-04-30 23:29:00,
2013-04-30 18:34:00,80.4,61.7,29.81,South,172,6.0,9.0,53,0.00,CLR,CLR,0.00,0.0,WeatherDisplay:10.37,2013-04-30 23:34:00,
2013-04-30 18:39:00,80.1,62.0,29.81,South,176,6.0,10.0,54,0.00,CLR,CLR,0.00,0.0,WeatherDisplay:10.37,2013-04-30 23:39:00,
2013-04-30 18:44:00,79.9,61.8,29.81,South,173,7.0,13.0,54,0.00,CLR,CLR,0.00,0.0,WeatherDisplay:10.37,2013-04-30 23:44:00,
2013-04-30 18:49:00,79.7,61.6,29.81,SSE,167,8.0,12.0,54,0.00,CLR,CLR,0.00,0.0,WeatherDisplay:10.37,2013-04-30 23:49:00,
2013-04-30 18:54:00,79.3,61.8,29.81,SSE,167,7.0,15.0,55,0.00,CLR,CLR,0.00,0.0,WeatherDisplay:10.37,2013-04-30 23:54:00,
2013-04-30 18:59:00,79.0,61.0,29.81,South,169,7.0,12.0,54,0.00,CLR,CLR,0.00,0.0,WeatherDisplay:10.37,2013-04-30 23:59:00,
2013-04-30 19:04:00,78.8,61.8,29.81,South,170,6.0,12.0,56,0.00,CLR,CLR,0.00,0.0,WeatherDisplay:10.37,2013-05-01 00:04:00,
2013-04-30 19:09:00,78.4,61.9,29.82,South,169,6.0,13.0,57,0.00,CLR,CLR,0.00,0.0,WeatherDisplay:10.37,2013-05-01 00:09:00,
2013-04-30 19:14:00,78.2,61.7,29.82,SSE,166,7.0,14.0,57,0.00,CLR,CLR,0.00,0.0,WeatherDisplay:10.37,2013-05-01 00:14:00,
2013-04-30 19:19:00,77.9,61.9,29.82,SSE,164,7.0,14.0,58,0.00,CLR,CLR,0.00,0.0,WeatherDisplay:10.37,2013-05-01 00:19:00,
2013-04-30 19:24:00,77.6,61.7,29.82,SSE,163,7.0,10.0,58,0.00,CLR,CLR,0.00,0.0,WeatherDisplay:10.37,2013-05-01 00:24:00,
2013-04-30 19:29:00,77.2,62.2,29.82,SSE,168,7.0,12.0,60,0.00,CLR,CLR,0.00,0.0,WeatherDisplay:10.37,2013-05-01 00:29:00,
2013-04-30 19:34:00,76.8,61.9,29.82,South,171,7.0,12.0,60,0.00,CLR,CLR,0.00,0.0,WeatherDisplay:10.37,2013-05-01 00:34:00,
2013-04-30 19:39:00,76.5,61.6,29.83,SSE,165,6.0,10.0,60,0.00,CLR,CLR,0.00,0.0,WeatherDisplay:10.37,2013-05-01 00:39:00,
2013-04-30 19:44:00,76.2,61.8,29.83,SSE,167,7.0,10.0,61,0.00,CLR,CLR,0.00,0.0,WeatherDisplay:10.37,2013-05-01 00:44:00,
2013-04-30 19:49:00,75.9,61.9,29.83,SSE,160,6.0,12.0,62,0.00,CLR,CLR,0.00,0.0,WeatherDisplay:10.37,2013-05-01 00:49:00,
2013-04-30 19:54:00,75.6,61.7,29.83,SSE,163,6.0,12.0,62,0.00,CLR,CLR,0.00,0.0,WeatherDisplay:10.37,2013-05-01 00:54:00,
2013-04-30 19:59:00,75.2,61.8,29.83,SSE,161,5.0,9.0,63,0.00,CLR,CLR,0.00,0.0,WeatherDisplay:10.37,2013-05-01 00:59:00,
2013-04-30 20:04:00,75.0,61.5,29.84,SSE,164,6.0,9.0,63,0.00,CLR,CLR,0.00,0.0,WeatherDisplay:10.37,2013-05-01 01:04:00,
2013-04-30 20:09:00,74.8,61.4,29.84,SSE,166,5.0,10.0,63,0.00,CLR,CLR,0.00,0.0,WeatherDisplay:10.37,2013-05-01 01:09:00,
2013-04-30 20:19:00,74.4,61.4,29.84,SSE,166,6.0,9.0,64,0.00,CLR,CLR,0.00,0.0,WeatherDisplay:10.37,2013-05-01 01:19:00,
2013-04-30 20:24:00,74.1,61.6,29.84,SSE,166,6.0,10.0,65,0.00,CLR,CLR,0.00,0.0,WeatherDisplay:10.37,2013-05-01 01:24:00,
2013-04-30 20:29:00,74.0,61.5,29.84,SSE,165,7.0,10.0,65,0.00,CLR,CLR,0.00,0.0,WeatherDisplay:10.37,2013-05-01 01:29:00,
2013-04-30 20:34:00,73.8,61.7,29.84,SSE,164,5.0,10.0,66,0.00,CLR,CLR,0.00,0.0,WeatherDisplay:10.37,2013-05-01 01:34:00,
2013-04-30 20:39:00,73.3,61.3,29.84,SSE,163,5.0,8.0,66,0.00,CLR,CLR,0.00,0.0,WeatherDisplay:10.37,2013-05-01 01:39:00,
2013-04-30 20:44:00,73.0,61.4,29.84,SSE,160,6.0,9.0,67,0.00,CLR,CLR,0.00,0.0,WeatherDisplay:10.37,2013-05-01 01:44:00,
2013-04-30 20:49:00,72.5,61.8,29.85,SSE,162,3.0,7.0,69,0.00,CLR,CLR,0.00,0.0,WeatherDisplay:10.37,2013-05-01 01:49:00,
2013-04-30 20:54:00,72.2,61.9,29.85,SSE,162,5.0,8.0,70,0.00,CLR,CLR,0.00,0.0,WeatherDisplay:10.37,2013-05-01 01:54:00,
2013-04-30 20:59:00,72.0,62.0,29.85,SSE,162,5.0,8.0,71,0.00,CLR,CLR,0.00,0.0,WeatherDisplay:10.37,2013-05-01 01:59:00,
2013-04-30 21:04:00,71.8,62.3,29.85,SSE,164,5.0,8.0,72,0.00,CLR,CLR,0.00,0.0,WeatherDisplay:10.37,2013-05-01 02:04:00,
2013-04-30 21:09:00,71.7,62.2,29.86,SSE,164,5.0,8.0,72,0.00,CLR,CLR,0.00,0.0,WeatherDisplay:10.37,2013-05-01 02:09:00,
2013-04-30 21:14:00,71.5,62.4,29.86,SSE,164,5.0,7.0,73,0.00,CLR,CLR,0.00,0.0,WeatherDisplay:10.37,2013-05-01 02:14:00,
2013-04-30 21:19:00,71.5,62.4,29.86,SSE,165,6.0,9.0,73,0.00,CLR,CLR,0.00,0.0,WeatherDisplay:10.37,2013-05-01 02:19:00,
2013-04-30 21:24:00,71.5,62.4,29.86,SSE,165,6.0,9.0,73,0.00,CLR,CLR,0.00,0.0,WeatherDisplay:10.37,2013-05-01 02:24:00,
2013-04-30 21:29:00,71.6,62.5,29.86,SSE,164,6.0,9.0,73,0.00,CLR,CLR,0.00,0.0,WeatherDisplay:10.37,2013-05-01 02:29:00,
2013-04-30 21:34:00,71.6,62.5,29.86,SSE,165,6.0,10.0,73,0.00,CLR,CLR,0.00,0.0,WeatherDisplay:10.37,2013-05-01 02:34:00,
2013-04-30 21:39:00,71.5,62.0,29.86,SSE,165,6.0,12.0,72,0.00,CLR,CLR,0.00,0.0,WeatherDisplay:10.37,2013-05-01 02:39:00,
2013-04-30 21:44:00,71.4,62.3,29.87,SSE,168,5.0,10.0,73,0.00,CLR,CLR,0.00,0.0,WeatherDisplay:10.37,2013-05-01 02:44:00,
2013-04-30 21:49:00,71.1,62.0,29.87,SSE,167,5.0,9.0,73,0.00,CLR,CLR,0.00,0.0,WeatherDisplay:10.37,2013-05-01 02:49:00,
2013-04-30 21:54:00,71.0,61.9,29.86,SSE,166,6.0,9.0,73,0.00,CLR,CLR,0.00,0.0,WeatherDisplay:10.37,2013-05-01 02:54:00,
2013-04-30 22:04:00,71.0,61.9,29.87,SSE,166,6.0,8.0,73,0.00,CLR,CLR,0.00,0.0,WeatherDisplay:10.37,2013-05-01 03:04:00,
2013-04-30 22:09:00,70.8,61.7,29.87,South,169,5.0,9.0,73,0.00,CLR,CLR,0.00,0.0,WeatherDisplay:10.37,2013-05-01 03:09:00,
2013-04-30 22:14:00,70.8,61.7,29.87,SSE,166,6.0,12.0,73,0.00,CLR,CLR,0.00,0.0,WeatherDisplay:10.37,2013-05-01 03:14:00,
2013-04-30 22:19:00,70.8,61.4,29.87,SSE,164,6.0,10.0,72,0.00,CLR,CLR,0.00,0.0,WeatherDisplay:10.37,2013-05-01 03:19:00,
2013-04-30 22:24:00,70.7,61.2,29.87,SSE,166,5.0,10.0,72,0.00,CLR,CLR,0.00,0.0,WeatherDisplay:10.37,2013-05-01 03:24:00,
2013-04-30 22:29:00,70.4,60.9,29.87,South,170,5.0,8.0,72,0.00,CLR,CLR,0.00,0.0,WeatherDisplay:10.37,2013-05-01 03:29:00,
2013-04-30 22:34:00,70.2,61.1,29.87,South,177,3.0,6.0,73,0.00,CLR,CLR,0.00,0.0,WeatherDisplay:10.37,2013-05-01 03:34:00,
2013-04-30 22:39:00,70.2,61.1,29.87,South,171,6.0,9.0,73,0.00,CLR,CLR,0.00,0.0,WeatherDisplay:10.37,2013-05-01 03:39:00,
2013-04-30 22:44:00,70.2,60.7,29.88,South,174,5.0,8.0,72,0.00,CLR,CLR,0.00,0.0,WeatherDisplay:10.37,2013-05-01 03:44:00,
2013-04-30 22:49:00,70.1,60.6,29.88,South,178,3.0,8.0,72,0.00,CLR,CLR,0.00,0.0,WeatherDisplay:10.37,2013-05-01 03:49:00,
2013-04-30 22:54:00,69.8,60.7,29.88,South,177,3.0,8.0,73,0.00,CLR,CLR,0.00,0.0,WeatherDisplay:10.37,2013-05-01 03:54:00,
2013-04-30 22:59:00,69.5,60.5,29.88,South,178,5.0,8.0,73,0.00,CLR,CLR,0.00,0.0,WeatherDisplay:10.37,2013-05-01 03:59:00,
2013-04-30 23:04:00,69.4,60.4,29.88,South,179,5.0,10.0,73,0.00,CLR,CLR,0.00,0.0,WeatherDisplay:10.37,2013-05-01 04:04:00,
2013-04-30 23:09:00,69.2,60.5,29.88,South,174,3.0,6.0,74,0.00,CLR,CLR,0.00,0.0,WeatherDisplay:10.37,2013-05-01 04:09:00,
2013-04-30 23:14:00,69.0,60.4,29.88,South,175,3.0,7.0,74,0.00,CLR,CLR,0.00,0.0,WeatherDisplay:10.37,2013-05-01 04:14:00,
2013-04-30 23:19:00,68.8,60.2,29.88,South,179,2.0,5.0,74,0.00,CLR,CLR,0.00,0.0,WeatherDisplay:10.37,2013-05-01 04:19:00,
2013-04-30 23:24:00,68.5,60.3,29.88,South,178,2.0,4.0,75,0.00,CLR,CLR,0.00,0.0,WeatherDisplay:10.37,2013-05-01 04:24:00,
2013-04-30 23:29:00,68.3,60.1,29.88,South,176,3.0,5.0,75,0.00,CLR,CLR,0.00,0.0,WeatherDisplay:10.37,2013-05-01 04:29:00,
2013-04-30 23:34:00,68.3,60.1,29.88,South,178,3.0,5.0,75,0.00,CLR,CLR,0.00,0.0,WeatherDisplay:10.37,2013-05-01 04:34:00,
2013-04-30 23:39:00,68.2,60.0,29.88,South,176,3.0,6.0,75,0.00,CLR,CLR,0.00,0.0,WeatherDisplay:10.37,2013-05-01 04:39:00,
2013-04-30 23:44:00,68.2,60.0,29.89,South,176,3.0,6.0,75,0.00,CLR,CLR,0.00,0.0,WeatherDisplay:10.37,2013-05-01 04:44:00,
2013-04-30 23:49:00,68.1,59.9,29.89,South,179,3.0,5.0,75,0.00,CLR,CLR,0.00,0.0,WeatherDisplay:10.37,2013-05-01 04:49:00,
2013-04-30 23:54:00,68.0,59.8,29.89,South,180,2.0,6.0,75,0.00,CLR,CLR,0.00,0.0,WeatherDisplay:10.37,2013-05-01 04:54:00,